This is the latest recevied weather packets stored in our database for station/object SM6LNJ-13. If no packets are shown the sender has not sent any weather packets the latest 1 day(s).
| Time | Temp. | Humidity | Pressure | Rain* | Wind** | Luminosity | Snow |
|---|---|---|---|---|---|---|---|
| 1778049470 | 10° C | 62% | 1418.7 hPa | 0 mm | 0.45 m/s, 76° | - | - |
| 1778049350 | 9.44° C | 63% | 1418.2 hPa | 0 mm | 0.45 m/s, 107° | - | - |
| 1778049230 | 9.44° C | 63% | 1417.7 hPa | 0 mm | 0.45 m/s, 92° | - | - |
| 1778049110 | 8.89° C | 63% | 1417.1 hPa | 0 mm | 0.45 m/s, 124° | - | - |
| 1778048990 | 8.89° C | 63% | 1416.7 hPa | 0 mm | 0.89 m/s, 114° | - | - |
| 1778048870 | 8.89° C | 64% | 1416.7 hPa | 0 mm | 0.45 m/s, 119° | - | - |
| 1778048750 | 8.89° C | 64% | 1416.2 hPa | 0 mm | 0.89 m/s, 94° | - | - |
| 1778048630 | 8.89° C | 64% | 1415.9 hPa | 0 mm | 0.45 m/s, 114° | - | - |
| 1778048510 | 8.33° C | 65% | 1415.9 hPa | 0 mm | 0.45 m/s, 117° | - | - |
| 1778048390 | 8.33° C | 65% | 1415.7 hPa | 0 mm | 0.45 m/s, 121° | - | - |
| 1778048270 | 8.33° C | 65% | 1415.6 hPa | 0 mm | 0.45 m/s, 131° | - | - |
| 1778048150 | 8.33° C | 65% | 1415.2 hPa | 0 mm | 0.45 m/s, 144° | - | - |
| 1778048030 | 8.33° C | 66% | 1414.8 hPa | 0 mm | 0.89 m/s, 107° | - | - |
| 1778047910 | 7.78° C | 66% | 1414.6 hPa | 0 mm | 0.45 m/s, 97° | - | - |
| 1778047790 | 7.78° C | 66% | 1414.2 hPa | 0 mm | 0.89 m/s, 113° | - | - |
| 1778047670 | 7.78° C | 67% | 1414.1 hPa | 0 mm | 0.89 m/s, 107° | - | - |
| 1778047550 | 7.78° C | 67% | 1414 hPa | 0 mm | 0.45 m/s, 114° | - | - |
| 1778047430 | 7.78° C | 67% | 1413.9 hPa | 0 mm | 0.89 m/s, 114° | - | - |
| 1778047310 | 7.78° C | 68% | 1413.7 hPa | 0 mm | 0.89 m/s, 102° | - | - |
| 1778047190 | 7.78° C | 69% | 1413.4 hPa | 0 mm | 0.89 m/s, 110° | - | - |
| 1778047070 | 7.22° C | 69% | 1413.1 hPa | 0 mm | 0.45 m/s, 89° | - | - |
| 1778046950 | 7.22° C | 69% | 1412.6 hPa | 0 mm | 0.45 m/s, 116° | - | - |
| 1778046830 | 7.22° C | 69% | 1412.4 hPa | 0 mm | 0.89 m/s, 119° | - | - |
| 1778046711 | 7.22° C | 69% | 1412.1 hPa | 0 mm | 0.45 m/s, 122° | - | - |
| 1778046590 | 6.67° C | 69% | 1412 hPa | 0 mm | 0.89 m/s, 106° | - | - |
* Rain latest hour (hover to see other rain measurements)
** Current wind speed in m/s (hover to see current wind gust speed)